Regional Weather Roundup
Issued by NWS

Home | Current Version | Previous Version | Graphics & Text | Print | Product List | Glossary On
Versions: 1 2 3 4 5 6 7 8 9 10 11 12 13 14 15 16 17 18 19 20 21 22 23 24 25 26 27 28 29 30 31 32 33 34 35 36 37 38
000
ASUS45 KBOU 220410
RWRCO

WEATHER ROUNDUP FOR COLORADO
NATIONAL WEATHER SERVICE PUEBLO CO
900 PM MST WED FEB 21 2018

NOTE: "FAIR" INDICATES FEW OR NO CLOUDS BELOW 12000 FEET WITH NO
SIGNIFICANT WEATHER AND/OR OBSTRUCTIONS TO VISIBILITY.

COZ001>005-013-030-031-220500-
...NORTHWEST COLORADO...

CITY           SKY/WX    TMP DP  RH WIND       PRES   REMARKS
CRAIG          CLOUDY    16   9  74 CALM      30.04F
HAYDEN         FAIR      16   4  59 E3        30.04F
MEEKER         LGT SNOW  22  18  85 CALM      30.01S FOG
RABBIT EARS PA NOT AVBL
STEAMBOAT SPGS CLOUDY    17   8  67 E3        30.01F
WALDEN         CLOUDY    12   3  67 SE6       30.00S WCI   3
$$

COZ006>008-011-220500-
...WEST CENTRAL VALLEYS...

CITY           SKY/WX    TMP DP  RH WIND       PRES   REMARKS
GRAND JUNCTION CLOUDY    32  20  61 CALM      30.03S
MONTROSE       CLOUDY    29  18  63 N5        30.01F WCI  24
EAGLE          CLOUDY    25  15  66 E6        30.02F WCI  18
RIFLE          CLOUDY    26  14  60 S3        30.02F
DELTA          NOT AVBL
NUCLA          LGT SNOW  28  27  93 NW5       30.03S WCI  23
$$

COZ017>023-064>068-220500-
...SOUTHWEST COLORADO...

CITY           SKY/WX    TMP DP  RH WIND       PRES   REMARKS
DURANGO        CLOUDY    29  25  85 SE7       29.99R WCI  22
CORTEZ         CLOUDY    31  27  85 CALM      29.99R
PAGOSA SPRINGS LGT SNOW  27  26  96 CALM      29.99S VSB 3/4
TELLURIDE      CLOUDY    25  13  62 CALM      29.94R
WOLF CREEK PAS CLOUDY    10  10 100 S10       29.97S WCI  -3
$$

COZ009-010-012-014-032>034-037-058>063-220500-
...CENTRAL COLORADO...

CITY           SKY/WX    TMP DP  RH WIND       PRES   REMARKS
ASPEN          FAIR      15   7  70 SW7       29.95F WCI   5
BUENA VISTA    CLOUDY    21  10  60 SE8       29.98R WCI  12
COPPER MTN     CLOUDY    14   3  62 S17G25    29.89F WCI  -3
BERTHOUD PASS  FAIR       3  -8  60 W8        29.89S WCI -10
COTTONWOOD PAS CLOUDY    27   9  46 CALM      29.94S
GUNNISON       FAIR      21  12  68 NE6       29.96S WCI  13
KREMMLING      FAIR      21  12  68 CALM      30.02S
LEADVILLE      CLOUDY    15   3  59 SE7       29.91F WCI   5
MONARCH PASS   CLOUDY    10   7  85 SW14      30.01F WCI  -5
SALIDA         CLOUDY    23  12  63 SE16G22   30.07S WCI  10
SUNLIGHT       FAIR       7   3  85 SE5       29.94F WCI  -2
WILKERSON PASS FAIR      10   5  79 SW7       29.95S WCI   0
$$

COZ069>075-220500-
...SAN LUIS VALLEY/SANGRE DE CRISTO MOUNTAINS...

CITY           SKY/WX    TMP DP  RH WIND       PRES   REMARKS
ALAMOSA        CLOUDY    26  17  68 S5        29.97S WCI  20
DEL NORTE      CLOUDY    27  16  61 W7        29.97S WCI  20
LA VETA PASS   CLOUDY    19  14  79 S15G22    30.08R WCI   5
SAGUACHE       NOT AVBL
$$

COZ035-036-038>040-220500-
...NORTHERN COLORADO FRONT RANGE...

CITY           SKY/WX    TMP DP  RH WIND       PRES   REMARKS
DENVER INTL AP FAIR      12   6  77 SW8       30.11S HAZE    WCI   0
DMNS CITY PARK NOT AVBL
AURORA         PTCLDY    11   6  82 S5        30.10F WCI   3
FRONT RANGE AP PTCLDY    16  10  79 SW8       30.11F WCI   5
ERIE MUNI ARPT FAIR      11   7  85 SW3       30.18F
BOULDER MUN AP FAIR      16  12  86 S6        30.11F WCI   7
CENTENNIAL     FAIR      13   8  81 CALM      30.09F
BROOMFIELD     PTCLDY    10   7  85 CALM      30.10F
LOVELAND       FAIR      12   8  84 N8        30.13F WCI   0
LONGMONT       FAIR      13   8  80 CALM      30.14F
$$

COZ041-046-047-076>085-087-088-220500-
...PIKES PEAK/PALMER DIVIDE AND SOUTHERN FOOTHILLS...

CITY           SKY/WX    TMP DP  RH WIND       PRES   REMARKS
COLO. SPRINGS  FAIR      13   8  81 SE8       30.10F WCI   2
A. F. ACADEMY  FAIR      13   4  68 S12       30.07S WCI  -1
SCHRIEVER AFB  NOT AVBL
CHEYENNE MTN   NOT AVBL
ELLICOTT         N/A    N/A N/A N/A SE8         N/A
FALCON         FAIR      10   6  82 MISG      30.06F
FORT CARSON    FAIR      15   8  72 S5        30.10F WCI   8
LIMON          CLOUDY    16  13  88 S13       30.13F WCI   2
MONUMENT HILL  FAIR      12   5  73 SW7       30.05F WCI   2
CANON CITY     CLEAR     19  10  68 NE5       30.14R WCI  13
WALSENBURG     FAIR      16  10  79 CALM      30.10R
TRINIDAD       FAIR      19   9  65 NW10      30.09S WCI   7
$$

COZ042>045-048>051-090-091-220500-
...NORTHEAST COLORADO...

CITY           SKY/WX    TMP DP  RH WIND       PRES   REMARKS
GREELEY ARPT   FAIR       6   2  83 N5        30.14F WCI  -3
AKRON          MOCLDY    20  12  71 SE18      30.17F WCI   5
BURLINGTON     CLOUDY    20  14  77 S9        30.23S WCI   9
WRAY           CLOUDY    27  16  63 SE10G16   30.28S WCI  17
YUMA           NOT AVBL
STERLING       FAIR      21  12  68 S6        30.20F WCI  14
HOLYOKE        CLOUDY    25  14  63 SE8       30.27S WCI  16
FORT MORGAN    FAIR      19  11  70 SE8       30.18S WCI   9
$$

COZ086-089-092>099-220500-
...SOUTHEAST COLORADO...

CITY           SKY/WX    TMP DP  RH WIND       PRES   REMARKS
PUEBLO         FAIR      20  13  74 E6        30.17R WCI  12
LA JUNTA       FAIR      21  15  78 E13       30.17S WCI   9
LAMAR          FAIR      20  12  71 SE9       30.22S WCI   9
SPRINGFIELD      N/A     14  13  95 SE10      30.19F WCI   1
$$





USA.gov is the U.S. government's official web portal to all federal, state and local government web resources and services.